IW2LSY-11 Weather Reports


time (UTC)temp
C
wind
direction
speed
KPH
gust
KPH
rain 1hr
cm
rain 24hr
cm
rain mn
cm
humidity
%
barometer
mb
20260902192010 23 237 0.0 0.0 0.00 0.00 0.00 52 1018.9
20260902191015 23 237 0.0 0.0 0.00 0.00 0.00 54 1018.8
20260902190015 23 237 0.0 0.0 0.00 0.00 0.00 53 1018.6
20260902185015 23 237 0.0 0.0 0.00 0.00 0.00 51 1018.4
20260902184014 23 237 0.0 0.0 0.00 0.00 0.00 55 1018.3
20260902183015 23 237 0.0 0.0 0.00 0.00 0.00 57 1018.1
20260902182015 24 237 0.0 0.0 0.00 0.00 0.00 53 1017.8
20260902181015 23 237 0.0 0.0 0.00 0.00 0.00 54 1017.6
20260902180015 25 237 0.0 0.0 0.00 0.00 0.00 51 1017.5
20260902175015 25 237 0.0 0.0 0.00 0.00 0.00 47 1017.3
20260902174015 26 237 0.0 0.0 0.00 0.00 0.00 45 1017.1
20260902173014 26 237 0.0 0.0 0.00 0.00 0.00 46 1017.1
20260902172011 25 237 0.0 0.0 0.00 0.00 0.00 47 1017.0
20260902171016 26 237 0.0 0.0 0.00 0.00 0.00 45 1016.9
20260902170016 27 237 0.0 0.0 0.00 0.00 0.00 40 1016.8
20260902165016 27 237 0.0 0.0 0.00 0.00 0.00 41 1016.7
20260902164015 27 237 0.0 0.0 0.00 0.00 0.00 39 1016.6
20260902163016 28 237 0.0 0.0 0.00 0.00 0.00 36 1016.4
20260902162016 29 237 0.0 0.0 0.00 0.00 0.00 34 1016.4
20260902161016 30 237 0.0 0.0 0.00 0.00 0.00 33 1016.3
20260902160016 30 237 0.0 0.0 0.00 0.00 0.00 34 1016.5
20260902155015 30 237 0.0 0.0 0.00 0.00 0.00 33 1016.4
20260902154015 30 237 0.0 0.0 0.00 0.00 0.00 32 1016.4
20260902153015 30 237 0.0 0.0 0.00 0.00 0.00 34 1016.4
20260902152016 30 237 0.0 0.0 0.00 0.00 0.00 33 1016.4
20260902151016 30 237 0.0 0.0 0.00 0.00 0.00 35 1016.5
20260902150015 30 237 0.0 0.0 0.00 0.00 0.00 39 1016.6
20260902145016 31 237 0.0 0.0 0.00 0.00 0.00 37 1016.7
20260902144016 30 237 0.0 0.0 0.00 0.00 0.00 34 1016.7
20260902143015 31 237 0.0 0.0 0.00 0.00 0.00 33 1016.9
20260902142016 31 237 0.0 0.0 0.00 0.00 0.00 32 1017.0
20260902141016 30 237 0.0 0.0 0.00 0.00 0.00 31 1016.9
20260902140016 30 237 0.0 0.0 0.00 0.00 0.00 32 1017.1
20260902135017 31 237 0.0 0.0 0.00 0.00 0.00 35 1017.3
20260902134016 30 237 0.0 0.0 0.00 0.00 0.00 34 1017.3
20260902133020 30 237 0.0 0.0 0.00 0.00 0.00 35 1017.4
20260902132015 30 237 0.0 0.0 0.00 0.00 0.00 35 1017.5
20260902131015 30 237 0.0 0.0 0.00 0.00 0.00 36 1017.7
20260902130014 30 237 0.0 0.0 0.00 0.00 0.00 36 1017.8
20260902125015 30 237 0.0 0.0 0.00 0.00 0.00 37 1018.0
20260902124014 30 237 0.0 0.0 0.00 0.00 0.00 38 1018.2
20260902123014 30 237 0.0 0.0 0.00 0.00 0.00 39 1018.3
20260902122014 30 237 0.0 0.0 0.00 0.00 0.00 39 1018.3
20260902121014 30 237 0.0 0.0 0.00 0.00 0.00 38 1018.3
20260902120013 30 237 0.0 0.0 0.00 0.00 0.00 39 1018.5
20260902115013 28 237 0.0 0.0 0.00 0.00 0.00 41 1018.6
20260902114013 28 237 0.0 0.0 0.00 0.00 0.00 39 1018.7
20260902113013 30 237 0.0 0.0 0.00 0.00 0.00 39 1018.7
20260902111013 30 237 0.0 0.0 0.00 0.00 0.00 40 1018.9
20260902110013 29 237 0.0 0.0 0.00 0.00 0.00 41 1019.0
20260902105014 28 237 0.0 0.0 0.00 0.00 0.00 41 1019.3
20260902104013 28 237 0.0 0.0 0.00 0.00 0.00 41 1019.6
20260902100014 27 237 0.0 0.0 0.00 0.00 0.00 44 1020.1
20260902094013 26 237 0.0 0.0 0.00 0.00 0.00 46 1020.5
20260902093014 26 237 0.0 0.0 0.00 0.00 0.00 46 1020.6
20260902092014 26 237 0.0 0.0 0.00 0.00 0.00 50 1020.7
20260902091014 26 237 0.0 0.0 0.00 0.00 0.00 47 1020.7
20260902085014 25 237 0.0 0.0 0.00 0.00 0.00 52 1021.1
20260902084014 25 237 0.0 0.0 0.00 0.00 0.00 55 1021.1
20260902083015 25 237 0.0 0.0 0.00 0.00 0.00 56 1021.0
20260902082015 25 237 0.0 0.0 0.00 0.00 0.00 53 1020.8
20260902081015 25 237 0.0 0.0 0.00 0.00 0.00 53 1020.8
20260902080015 26 237 0.0 0.0 0.00 0.00 0.00 50 1020.8
20260902075014 24 237 0.0 0.0 0.00 0.00 0.00 52 1020.8
20260902074014 24 237 0.0 0.0 0.00 0.00 0.00 58 1020.9
20260902073014 23 237 0.0 0.0 0.00 0.00 0.00 59 1020.9
20260902072014 25 237 0.0 0.0 0.00 0.00 0.00 55 1021.0
20260902071013 22 237 0.0 0.0 0.00 0.00 0.00 64 1020.9
20260902070013 22 237 0.0 0.0 0.00 0.00 0.00 66 1021.0
20260902065013 21 237 0.0 0.0 0.00 0.00 0.00 70 1021.1
20260902064012 21 237 0.0 0.0 0.00 0.00 0.00 72 1021.1
20260902063011 20 237 0.0 0.0 0.00 0.00 0.00 75 1021.1
20260902062012 22 237 0.0 0.0 0.00 0.00 0.00 71 1021.0
20260902061011 20 237 0.0 0.0 0.00 0.00 0.00 84 1021.0
20260902060011 18 237 0.0 0.0 0.00 0.00 0.00 93 1021.1
20260902055011 18 237 0.0 0.0 0.00 0.00 0.00 93 1021.0
20260902054010 18 237 0.0 0.0 0.00 0.00 0.00 91 1020.9
20260902053010 18 237 0.0 0.0 0.00 0.00 0.00 93 1020.8
20260902052010 18 237 0.0 0.0 0.00 0.00 0.00 92 1020.7
20260902051010 18 237 0.0 0.0 0.00 0.00 0.00 91 1020.7
20260902050010 18 237 0.0 0.0 0.00 0.00 0.00 93 1020.7
20260902045010 18 237 0.0 0.0 0.00 0.00 0.00 96 1020.6
20260902044021 17 237 0.0 0.0 0.00 0.00 0.00 10 1020.6
20260902043020 18 237 0.0 0.0 0.00 0.00 0.00 98 1020.4
20260902042020 18 237 0.0 0.0 0.00 0.00 0.00 95 1020.4
20260902040009 18 237 0.0 0.0 0.00 0.00 0.00 93 1020.4
20260902035021 17 237 0.0 0.0 0.00 0.00 0.00 99 1020.4
20260902034020 18 237 0.0 0.0 0.00 0.00 0.00 95 1020.4
20260902033020 18 237 0.0 0.0 0.00 0.00 0.00 91 1020.3
20260902032020 18 237 0.0 0.0 0.00 0.00 0.00 95 1020.3
20260902030020 18 237 0.0 0.0 0.00 0.00 0.00 99 1020.4
20260902025009 18 237 0.0 0.0 0.00 0.00 0.00 98 1020.4
20260902024021 18 237 0.0 0.0 0.00 0.00 0.00 98 1020.4
20260902023020 18 237 0.0 0.0 0.00 0.00 0.00 93 1020.5
20260902022009 18 237 0.0 0.0 0.00 0.00 0.00 90 1020.4
20260902021021 18 237 0.0 0.0 0.00 0.00 0.00 95 1020.3
20260902015020 18 237 0.0 0.0 0.00 0.00 0.00 92 1020.3
20260902014020 18 237 0.0 0.0 0.00 0.00 0.00 91 1020.3
20260902013019 19 237 0.0 0.0 0.00 0.00 0.00 88 1020.3
20260902012019 18 237 0.0 0.0 0.00 0.00 0.00 90 1020.3
20260902011021 18 237 0.0 0.0 0.00 0.00 0.00 91 1020.3
20260902010018 19 237 0.0 0.0 0.00 0.00 0.00 86 1020.3
20260902005018 19 237 0.0 0.0 0.00 0.00 0.00 87 1020.2
20260902004018 19 237 0.0 0.0 0.00 0.00 0.00 87 1020.2
20260902003018 18 237 0.0 0.0 0.00 0.00 0.00 90 1020.2
20260902002017 19 237 0.0 0.0 0.00 0.00 0.00 89 1020.2
20260902001016 19 237 0.0 0.0 0.00 0.00 0.00 89 1020.3
20260902000016 19 237 0.0 0.0 0.00 0.00 0.00 87 1020.3
20260901235015 19 237 0.0 0.0 0.00 0.00 0.00 89 1020.2
20260901234015 19 237 0.0 0.0 0.00 0.00 0.00 91 1020.2
20260901233016 19 237 0.0 0.0 0.00 0.00 0.00 88 1020.3
20260901232015 20 237 0.0 0.0 0.00 0.00 0.00 83 1020.4
20260901231015 20 237 0.0 0.0 0.00 0.00 0.00 84 1020.3
20260901230014 20 237 0.0 0.0 0.00 0.00 0.00 83 1020.3
20260901225014 20 244 0.0 0.0 0.00 0.00 0.00 82 1020.4
20260901224014 20 244 0.0 0.0 0.00 0.00 0.00 83 1020.3
20260901223013 20 244 0.0 0.0 0.00 0.00 0.00 82 1020.1
20260901222012 20 244 0.0 0.0 0.00 0.00 0.00 80 1020.2
20260901221012 20 244 0.0 0.0 0.00 0.00 0.00 82 1020.2
20260901220011 20 244 0.0 0.0 0.00 0.00 0.00 81 1020.3
20260901215012 20 244 0.0 0.0 0.00 0.00 0.00 77 1020.2
20260901214011 21 244 0.0 0.0 0.00 0.00 0.00 74 1020.1
20260901213011 20 244 0.0 0.0 0.00 0.00 0.00 76 1020.0
20260901212013 21 244 0.0 0.0 0.00 0.00 0.00 73 1019.9
20260901211010 20 244 0.0 0.0 0.00 0.00 0.00 76 1019.9
20260901210010 21 244 0.0 0.0 0.00 0.00 0.00 72 1019.9
20260901205020 21 244 0.0 0.0 0.00 0.00 0.00 71 1019.8
20260901204009 21 244 0.0 0.0 0.00 0.00 0.00 72 1019.7
20260901203020 21 244 0.0 0.0 0.00 0.00 0.00 71 1019.7
20260901201020 22 244 0.0 0.0 0.00 0.00 0.00 68 1019.4
20260901200020 22 244 0.0 0.0 0.00 0.00 0.00 68 1019.3
20260901195019 21 244 0.0 0.0 0.00 0.00 0.00 69 1019.1
20260901194020 22 244 0.0 0.0 0.00 0.00 0.00 69 1019.0
20260901193009 22 244 0.0 0.0 0.00 0.00 0.00 66 1018.9